[[{"header":{"parameterUnit":"m.s-1","parameterCategory":1,"la1":30.2991,"la2":30.254,"lo1":-89.0895,"lo2":-89.0444,"dy":0.0017,"dx":0.0017,"nx":28,"ny":28,"refTime":"2025-08-15T03:00:00:Z","depth":0,"parameterNumber":2,"parameterNumberName":"U-component_of_WINDS"},"data":[0,0,0,0,0,0,0,0,0,0,0,0,0,0,0,0,0,0,0,0,0,0,0,0,0,0,0,0,0,0,0,0,0,0,0,0,0,0,0,0,0,0,0,0,0,0,0,0,0,0,0,0,0,0,0,0,0,0,2.9018,2.9017,0,2.8969,2.8968,2.8968,2.8847,2.8845,2.8842,2.884,2.8794,2.8795,2.8796,0,0,0,0,0,0,0,0,0,0,0,0,0,2.9011,2.9012,2.9018,2.9017,2.9017,2.8969,2.8968,2.8967,2.8848,2.8845,2.8842,2.8839,2.8793,2.8795,2.8796,0,0,0,0,0,0,0,0,0,0,0,0,0,2.8994,2.9012,2.9018,2.8951,2.8944,2.8969,2.8968,2.8967,2.8849,2.8845,2.8841,2.8837,2.8793,2.8795,2.8796,2.8883,0,0,2.8801,2.8802,0,0,0,0,0,0,0,0,2.8995,2.8994,2.8961,2.8956,2.8948,2.891,2.8949,2.8939,2.8849,2.8885,2.884,2.8835,2.8836,2.8834,2.8833,2.8881,2.8879,2.8802,2.8803,2.8803,2.8804,0,0,0,0,0,0,0,2.8996,2.8996,2.8998,2.8961,2.8953,2.8925,2.8918,2.8946,2.8883,2.8882,2.8873,2.8869,2.8832,2.8832,2.8831,2.8878,2.8801,2.8803,2.8804,2.8805,2.8994,2.8998,0,0,0,0,0,0,2.9007,2.8997,2.9,2.8997,2.8963,2.8928,2.892,2.8926,2.8882,2.8871,2.8872,2.8863,2.8831,2.8829,2.8829,2.8927,2.8803,2.8805,2.8806,2.899,2.8995,2.8999,0,0,0,0,0,0,2.9007,2.9008,2.9002,2.8995,2.8992,2.8932,2.894,2.8927,2.8927,2.8874,2.8863,2.8883,2.8828,2.8827,2.887,2.8924,2.8806,2.8807,2.8986,2.8992,2.8997,2.9124,0,0,0,0,0,0,2.9007,2.9009,2.904,2.8996,2.8993,2.9043,2.8943,2.8929,2.893,2.8918,2.8882,2.8872,2.8824,2.8868,2.8872,2.8924,2.8808,2.898,2.8988,2.8995,2.9115,2.9134,2.915,0,0,0,0,0,2.9007,2.9079,2.9042,2.9043,2.903,2.9046,2.9044,2.8986,2.8935,2.8966,2.8932,2.8874,2.8918,2.8874,2.8877,2.893,2.8977,2.8986,2.8995,2.9107,2.913,2.915,0,0,0,0,0,0,2.9132,2.9072,2.9031,2.909,2.9074,2.9026,2.9064,2.9013,2.9012,2.9001,2.8931,2.8924,2.8977,2.8958,2.891,2.9012,2.8938,2.8948,2.9022,2.9043,2.9061,2.9064,2.881,0,0,0,0,0,2.9166,2.9182,2.913,2.9187,2.9181,2.9124,2.9129,2.9086,2.9067,2.906,2.9029,2.9015,2.9025,2.9033,2.904,2.9112,2.9102,2.915,2.9168,2.9183,2.9192,2.9229,2.9249,2.9029,2.9029,2.9029,0,0,2.9237,2.9206,2.9221,2.9211,2.9194,2.9214,2.9119,2.9145,2.9159,2.9064,2.9103,2.908,2.9059,2.9117,2.9142,2.9103,2.9251,2.9194,2.9206,2.9207,2.924,2.9261,2.928,2.9035,2.9034,2.9033,0,0,2.9375,2.9354,2.9399,2.9383,2.9358,2.932,2.9331,2.9291,2.9272,2.9309,2.9239,2.9256,2.9275,2.9263,2.9259,2.9395,2.934,2.9399,2.949,2.9527,2.9544,2.9559,2.9607,2.9625,2.9409,2.9409,2.9409,0,2.9467,2.9493,2.9429,2.9458,2.9456,2.9371,2.9416,2.9405,2.9384,2.9385,2.9342,2.9364,2.9344,2.9398,2.9431,2.9432,2.9442,2.9402,2.9547,2.9561,2.9574,2.9619,2.9637,2.9416,2.9415,2.9415,2.9414,0,2.9606,2.9626,2.9665,2.9645,2.9648,2.9686,2.9629,2.9639,2.9597,2.9564,2.9603,2.9576,2.9576,2.9586,2.9545,2.9635,2.9611,2.9559,2.9483,2.9603,2.9644,2.9661,2.9426,2.9424,2.9422,2.942,0,0,2.9821,2.9765,2.9781,2.9771,2.9737,2.9751,2.9786,2.9784,2.9795,2.9784,2.9811,2.983,2.9781,2.9777,2.9734,2.9766,2.9875,2.9709,2.9708,2.9741,2.9972,3.0012,3.0032,2.984,2.9843,2.9845,2.9974,0,2.9951,3.0004,2.9948,3.0014,3.0031,2.9951,2.9981,2.9964,2.9935,2.9946,2.9914,2.9928,2.9863,2.986,2.9888,2.9856,2.9921,2.9846,2.9865,2.9866,2.9872,3.0054,3.0095,3.0218,2.999,2.9992,2.9994,0,3.0109,3.0104,3.0171,3.0133,3.0138,3.0166,3.016,3.0172,3.0152,3.0128,3.0124,3.0072,3.0104,3.0031,3.0075,3.0026,3.003,3.0016,3.0019,3.0018,2.9937,3.0057,3.0256,3.0274,3.0019,3.0017,3.0015,0,3.0258,3.0268,3.0309,3.0304,3.026,3.0282,3.0265,3.0241,3.0244,3.024,3.0241,3.0241,3.0241,3.0243,3.0193,3.0145,3.0244,3.0166,3.0225,3.0227,3.0249,3.0248,3.0451,3.0254,3.0254,3.0253,3.0253,0,3.0408,3.0453,3.0376,3.0401,3.0449,3.0385,3.0434,3.0409,3.0389,3.0409,3.0341,3.0361,3.0294,3.0308,3.0269,3.0312,3.0313,3.0295,3.0284,3.03,3.0303,3.0302,3.0292,3.0258,3.0257,3.0256,3.0255,0,3.0582,3.0533,3.0572,3.0528,3.0518,3.0555,3.0518,3.054,3.0506,3.0533,3.0535,3.0483,3.0496,3.0446,3.0451,3.0425,3.0488,3.0463,3.0494,3.0486,3.0548,3.0543,3.0756,3.0781,3.057,3.0572,3.0574,0,3.0681,3.0713,3.0672,3.068,3.0666,3.068,3.0682,3.0621,3.0627,3.0607,3.0632,3.0639,3.0641,3.0666,3.0629,3.0633,3.0607,3.0682,3.0608,3.0623,3.0608,3.0606,3.0609,3.0698,3.07,3.0702,3.0704,0,3.0861,3.0835,3.084,3.0837,3.0841,3.0836,3.0826,3.0837,3.0772,3.0782,3.0793,3.0795,3.08,3.0808,3.0804,3.0788,3.0736,3.0728,3.0742,3.0758,3.0775,3.0766,3.0536,3.0723,3.0721,3.072,3.0719,3.0718,3.1,3.1024,3.0999,3.1007,3.0993,3.0986,3.1005,3.0973,3.0981,3.0979,3.0944,3.0963,3.0943,3.0932,3.0921,3.0936,3.0901,3.0922,3.0927,3.0932,3.0943,3.0773,3.0936,3.0935,3.0934,3.0934,3.0933,0,3.1175,3.1155,3.1164,3.1152,3.1159,3.1108,3.1095,3.1104,3.1121,3.1106,3.111,3.1124,3.1132,3.1096,3.1099,3.1118,3.1094,3.1121,3.1118,3.1116,3.0974,3.0961,3.114,3.114,3.114,3.114,3.114,3.114,3.1268,3.1306,3.1278,3.1309,3.1289,3.1306,3.1303,3.1296,3.1284,3.1302,3.1308,3.1284,3.1262,3.1262,3.1268,3.1257,3.1261,3.1297,3.1278,3.1146,3.1126,3.1106,3.1094,3.1298,3.1298,3.1418,3.1419,3.142]},{"header":{"parameterUnit":"m.s-1","parameterCategory":1,"la1":30.2991,"la2":30.254,"lo1":-89.0895,"lo2":-89.0444,"dy":0.0017,"dx":0.0017,"nx":28,"ny":28,"refTime":"2025-08-15T03:00:00:Z","depth":0,"parameterNumber":3,"parameterNumberName":"V-component_of_WINDS"},"data":[0,0,0,0,0,0,0,0,0,0,0,0,0,0,0,0,0,0,0,0,0,0,0,0,0,0,0,0,0,0,0,0,0,0,0,0,0,0,0,0,0,0,0,0,0,0,0,0,0,0,0,0,0,0,0,0,0,0,-0.1828,-0.183,0,-0.2001,-0.2003,-0.2005,-0.2033,-0.2031,-0.203,-0.2028,-0.2223,-0.2229,-0.2236,0,0,0,0,0,0,0,0,0,0,0,0,0,-0.1537,-0.1542,-0.1828,-0.183,-0.1832,-0.2001,-0.2003,-0.2005,-0.2033,-0.2031,-0.2029,-0.2028,-0.2221,-0.2228,-0.2236,0,0,0,0,0,0,0,0,0,0,0,0,0,-0.1682,-0.1544,-0.1828,-0.1866,-0.1871,-0.2,-0.2003,-0.2006,-0.2034,-0.2031,-0.2029,-0.2027,-0.2218,-0.2228,-0.2237,-0.2345,0,0,-0.2268,-0.2272,0,0,0,0,0,0,0,0,-0.1674,-0.1693,-0.1858,-0.1864,-0.1869,-0.1992,-0.1972,-0.212,-0.2034,-0.1973,-0.2028,-0.2026,-0.2149,-0.2165,-0.2203,-0.2355,-0.2363,-0.2269,-0.2275,-0.2279,-0.2282,0,0,0,0,0,0,0,-0.1664,-0.1686,-0.1897,-0.1861,-0.1868,-0.188,-0.1898,-0.2,-0.2073,-0.1978,-0.198,-0.1999,-0.2152,-0.2193,-0.2208,-0.2366,-0.2268,-0.2277,-0.2283,-0.2287,-0.2615,-0.2618,0,0,0,0,0,0,-0.1645,-0.1677,-0.1891,-0.1902,-0.1763,-0.1887,-0.1907,-0.1956,-0.2071,-0.2086,-0.2001,-0.2,-0.2177,-0.2196,-0.2215,-0.2348,-0.2279,-0.2288,-0.2294,-0.2613,-0.2616,-0.2619,0,0,0,0,0,0,-0.1638,-0.1663,-0.1884,-0.179,-0.1819,-0.1894,-0.1949,-0.196,-0.2001,-0.2089,-0.2103,-0.2029,-0.2176,-0.2201,-0.2311,-0.2356,-0.2293,-0.2302,-0.261,-0.2614,-0.2618,-0.2617,0,0,0,0,0,0,-0.163,-0.1661,-0.1699,-0.1791,-0.1824,-0.1974,-0.1951,-0.1965,-0.2016,-0.2016,-0.2118,-0.2133,-0.2176,-0.2296,-0.2321,-0.2368,-0.2309,-0.2606,-0.2611,-0.2616,-0.2614,-0.2621,-0.2627,0,0,0,0,0,-0.1619,-0.1696,-0.1701,-0.1727,-0.1873,-0.1976,-0.1996,-0.2039,-0.202,-0.2061,-0.2117,-0.213,-0.2346,-0.2307,-0.2336,-0.2386,-0.2603,-0.261,-0.2616,-0.2611,-0.2619,-0.2627,0,0,0,0,0,0,-0.1615,-0.1709,-0.1716,-0.1823,-0.1891,-0.1981,-0.2034,-0.2047,-0.2126,-0.2123,-0.2178,-0.2201,-0.2309,-0.2359,-0.2314,-0.2497,-0.2474,-0.2486,-0.246,-0.2469,-0.2476,-0.2463,-0.2318,0,0,0,0,0,-0.1625,-0.1696,-0.1777,-0.1865,-0.1897,-0.196,-0.2007,-0.2033,-0.2108,-0.2138,-0.2202,-0.2279,-0.2364,-0.242,-0.2503,-0.262,-0.2645,-0.2669,-0.2676,-0.2681,-0.2692,-0.2758,-0.2771,-0.2639,-0.2639,-0.2639,0,0,-0.1651,-0.1711,-0.1753,-0.1865,-0.1921,-0.1997,-0.1984,-0.2067,-0.2125,-0.2153,-0.2259,-0.2309,-0.2399,-0.2513,-0.2567,-0.2558,-0.2733,-0.2689,-0.2692,-0.27,-0.2766,-0.2778,-0.2789,-0.2644,-0.2643,-0.2642,0,0,-0.1735,-0.1786,-0.1864,-0.1918,-0.1999,-0.204,-0.2058,-0.2146,-0.2178,-0.2284,-0.2306,-0.238,-0.2525,-0.2587,-0.2638,-0.2742,-0.2758,-0.2769,-0.2804,-0.2869,-0.2879,-0.2889,-0.2927,-0.294,-0.2779,-0.2779,-0.2779,0,-0.1757,-0.1868,-0.1904,-0.1984,-0.2034,-0.2055,-0.2137,-0.2189,-0.2297,-0.2333,-0.2319,-0.25,-0.2563,-0.2692,-0.2716,-0.2757,-0.2783,-0.2758,-0.2873,-0.2883,-0.2893,-0.293,-0.2945,-0.2779,-0.2779,-0.2779,-0.2779,0,-0.1892,-0.1968,-0.2023,-0.2118,-0.2174,-0.2255,-0.2307,-0.236,-0.2381,-0.2424,-0.2534,-0.2608,-0.2706,-0.2738,-0.2763,-0.2872,-0.2864,-0.2861,-0.284,-0.2905,-0.2942,-0.2956,-0.278,-0.278,-0.278,-0.278,0,0,-0.1982,-0.2091,-0.2111,-0.2154,-0.2244,-0.2307,-0.239,-0.2479,-0.2524,-0.2598,-0.2671,-0.2791,-0.2788,-0.2846,-0.2877,-0.2933,-0.3012,-0.2925,-0.2928,-0.2939,-0.3139,-0.3141,-0.3156,-0.3022,-0.3025,-0.3027,-0.3132,0,-0.2077,-0.2218,-0.2252,-0.2376,-0.2448,-0.2468,-0.254,-0.2606,-0.2648,-0.272,-0.2769,-0.2853,-0.2843,-0.2878,-0.2934,-0.299,-0.3053,-0.2983,-0.3095,-0.3099,-0.3073,-0.3175,-0.3178,-0.3273,-0.3146,-0.3148,-0.315,0,-0.2209,-0.2276,-0.2404,-0.2482,-0.2515,-0.2578,-0.2662,-0.2729,-0.2805,-0.2832,-0.2894,-0.2919,-0.301,-0.2981,-0.311,-0.3062,-0.311,-0.3144,-0.3149,-0.3163,-0.313,-0.3194,-0.3304,-0.3319,-0.3173,-0.3171,-0.3169,0,-0.2262,-0.2387,-0.2479,-0.2515,-0.2608,-0.2653,-0.2695,-0.2767,-0.2819,-0.2894,-0.2929,-0.3016,-0.3065,-0.3134,-0.3184,-0.3158,-0.3309,-0.3285,-0.3338,-0.3337,-0.3371,-0.3369,-0.3493,-0.3399,-0.3399,-0.3399,-0.3398,0,-0.2366,-0.2445,-0.2503,-0.2561,-0.265,-0.2689,-0.2778,-0.2822,-0.2886,-0.2955,-0.298,-0.3046,-0.3106,-0.3182,-0.3222,-0.3323,-0.3345,-0.3373,-0.3383,-0.3372,-0.3368,-0.3406,-0.3401,-0.3402,-0.3402,-0.3401,-0.34,0,-0.2443,-0.2485,-0.2587,-0.2664,-0.2685,-0.2748,-0.2817,-0.2876,-0.2916,-0.3004,-0.3028,-0.3094,-0.3184,-0.3239,-0.3355,-0.3382,-0.3494,-0.3502,-0.3467,-0.3472,-0.3522,-0.3517,-0.3677,-0.37,-0.3588,-0.3589,-0.359,0,-0.2507,-0.2567,-0.2648,-0.2693,-0.2733,-0.2806,-0.2856,-0.2898,-0.2951,-0.304,-0.3089,-0.3178,-0.3252,-0.3396,-0.3459,-0.3548,-0.3558,-0.3608,-0.3573,-0.3559,-0.3561,-0.3557,-0.3565,-0.3615,-0.3616,-0.3616,-0.3617,0,-0.2618,-0.2635,-0.2703,-0.2777,-0.2835,-0.2898,-0.2961,-0.2998,-0.3051,-0.311,-0.3198,-0.3254,-0.3369,-0.3459,-0.3553,-0.3603,-0.3621,-0.3626,-0.3644,-0.3634,-0.3612,-0.3626,-0.3484,-0.3624,-0.3623,-0.3623,-0.3622,-0.3622,-0.2693,-0.2745,-0.2809,-0.2885,-0.2934,-0.2992,-0.305,-0.3095,-0.3167,-0.3259,-0.328,-0.3374,-0.3449,-0.3575,-0.3626,-0.3704,-0.3697,-0.3722,-0.3729,-0.3735,-0.3736,-0.3597,-0.3721,-0.3721,-0.3721,-0.3721,-0.3721,0,-0.2806,-0.2846,-0.2914,-0.2997,-0.3057,-0.306,-0.3129,-0.3181,-0.326,-0.3325,-0.3395,-0.3497,-0.3584,-0.3651,-0.3741,-0.3791,-0.3801,-0.3813,-0.3812,-0.3823,-0.3737,-0.3713,-0.3803,-0.3803,-0.3803,-0.3803,-0.3803,-0.3803,-0.2872,-0.2961,-0.2985,-0.31,-0.3143,-0.3228,-0.3268,-0.3322,-0.3374,-0.3484,-0.3553,-0.3593,-0.3661,-0.3756,-0.3837,-0.3855,-0.3888,-0.3899,-0.3919,-0.3838,-0.3829,-0.3821,-0.3799,-0.3905,-0.3906,-0.3999,-0.4,-0.4001]}]]